Regional Weather Roundup
Issued by NWS

Home | Current Version | Previous Version | Graphics & Text | Print | Product List | Glossary On
Versions: 1 2 3 4 5 6 7 8 9 10 11 12 13 14 15 16 17 18 19 20 21 22 23 24 25 26 27 28 29 30 31 32 33 34 35 36 37 38 39 40 41 42 43 44 45 46 47 48 49 50
000
ASUS44 KMEG 121800
RWRTN
TENNESSEE HOURLY STATE WEATHER ROUNDUP
NATIONAL WEATHER SERVICE MEMPHIS TN
1200 PM CST FRI FEB 12 2016

TNZ002-004-019-021-049-052-054-088>092-121900-
WEST TENNESSEE

CITY           SKY/WX    TMP DP  RH WIND       PRES   REMARKS
MEMPHIS INTL   MOSUNNY   51  27  39 N14       30.26S
NWS MEMPHIS      N/A     50 N/A N/A MISG        N/A
JACKSON        SUNNY     47  26  44 NW16      30.24S
DYERSBURG      SUNNY     43  25  49 N13G21    30.28S
UNION CITY     SUNNY     39  27  60 NW10      30.25S WCI  32
PARIS          MOSUNNY   39  23  52 N14       30.23S WCI  31
LEXINGTON      MOSUNNY   46  21  36 W12       30.19F
$$

TNZ008-025-027-028-033-062-065-066-121900-
NORTH MIDDLE TENNESSEE

CITY           SKY/WX    TMP DP  RH WIND       PRES   REMARKS
NASHVILLE      CLOUDY    41  23  48 N5        30.20F
CLARKSVILLE    CLOUDY    38  27  64 N9        30.22F WCI  31
COOKEVILLE     MOSUNNY   34  30  86 N5        30.15S WCI  30
CROSSVILLE     CLOUDY    35  28  75 W8        30.11F WCI  29
$$

TNZ061-075-076-078-094-096-097-121900-
SOUTH MIDDLE TENNESSEE

CITY           SKY/WX    TMP DP  RH WIND       PRES   REMARKS
TULLAHOMA      PTSUNNY   45  27  49 NW13      30.15S
WINCHESTER     CLOUDY    46  28  49 VRB6      30.14F
MCMINNVILLE    PTSUNNY   41  28  60 NW7       30.15F
COLUMBIA       CLOUDY    46  28  49 NW9       30.16S
SHELBYVILLE    PTSUNNY   46  30  53 N8        30.17F
$$

TNZ017-018-042-046-047-121900-
NORTHEAST TENNESSEE

CITY           SKY/WX    TMP DP  RH WIND       PRES   REMARKS
TRI CITIES     SNOW      30  28  92 W7        30.07F VSB 1/2 WCI  23
$$

TNZ012-013-036-069-073-074-121900-
CENTRAL EAST TENNESSEE

CITY           SKY/WX    TMP DP  RH WIND       PRES   REMARKS
KNOXVILLE      FLURRIES  32  29  88 W6        30.13S WCI  26
OAK RIDGE      CLOUDY    34  30  85 CALM      30.14F
GATLINBURG     CLOUDY    30  28  93 CALM      30.12S
$$

TNZ083-085-099-121900-
SOUTHEAST TENNESSEE

CITY           SKY/WX    TMP DP  RH WIND       PRES   REMARKS
CHATTANOOGA    MOSUNNY   51  27  39 N3        30.12F
$$

SKY/WX REPORTED AS FAIR MEANS FEW OR NO CLOUDS BELOW
12 THOUSAND FEET.




USA.gov is the U.S. government's official web portal to all federal, state and local government web resources and services.